Simultaneous Nadir Overpasses (SNOs) Predictions

Prediction of SNOs between AQUA and METOP-A Satellite Orbit:

Table of predicted SNOs for the next 14.0 days since TLE Epoch: 4/4/2015
Index Date (AQUA) Time (AQUA) Lat,Lon (AQUA) SZA (AQUA ) Date (METOP-A) Time (METOP-A) Lat,Lon (METOP-A) SZA (METOP-A ) Distance(km) Time Diff (sec)
1 04/05/2015 05:19:55 -73.86, -85.57 112.08 04/05/2015 05:18:49 -73.85, -85.47 112.08 3.02 66
2 04/05/2015 06:09:23 73.88, 82.02 67.93 04/05/2015 06:09:28 73.88, 81.92 67.93 3.23 5
3 04/05/2015 06:58:53 -74.11,-110.85 111.84 04/05/2015 07:00:05 -74.13,-110.15 111.86 21.58 72
4 04/08/2015 00:54:12 -73.83, -19.08 113.18 04/08/2015 00:53:09 -73.84, -19.11 113.17 0.82 63
5 04/08/2015 01:43:41 73.91, 148.37 66.90 04/08/2015 01:43:47 73.90, 148.39 66.89 1.17 6
6 04/08/2015 02:33:12 -74.19, -44.61 112.83 04/08/2015 02:34:23 -74.21, -43.54 112.85 32.50 71
7 04/10/2015 20:28:29 -73.84, 47.33 114.23 04/10/2015 20:27:29 -73.86, 47.35 114.20 2.21 60
8 04/10/2015 21:17:58 73.92,-145.22 65.86 04/10/2015 21:18:07 73.92,-145.15 65.85 2.21 9
9 04/10/2015 22:07:32 -74.35, 21.44 113.71 04/10/2015 22:08:41 -74.33, 23.17 113.79 51.97 69
10 04/13/2015 16:02:45 -73.88, 113.68 115.22 04/13/2015 16:01:49 -73.87, 113.79 115.23 3.36 56
11 04/13/2015 16:52:13 73.92, -78.77 64.81 04/13/2015 16:52:27 73.93, -78.72 64.82 2.06 14
12 04/13/2015 17:41:51 -74.54, 87.42 114.53 04/13/2015 17:42:57 -74.53, 90.12 114.63 80.10 66
13 04/16/2015 11:36:57 -73.84,-179.80 116.27 04/16/2015 11:36:08 -73.87,-179.80 116.24 2.56 49
14 04/16/2015 12:26:26 73.94, -12.39 63.83 04/16/2015 12:26:46 73.93, -12.31 63.81 2.76 20




NCC Satellite Simultaneous Nadir Overpasses (SNOs) Prediction Service
